星链-34355 (STARLINK-34355)

导读

STARLINK-34355是美国于2025年6月8日发射的星链卫星,隶属于SpaceX公司的星链互联网卫星星座项目。星链计划旨在通过构建近地轨道卫星群,为全球提供高速低延迟的互联网覆盖服务,该卫星的发射延续了星链星座扩张部署的节奏,推进了全球卫星互联网组网进程。

Basic Information
目录编号:
64306
目录名称:
STARLINK-34355
国际标识:
2025-123R
轨道中心:
EARTH
卫星名称:
星链-34355
卫星全名:
星链-34355 (STARLINK-34355)
卫星状态:
在轨 (已飞行453 天)
发射日期:
2025-06-08 UTC
国别 :
美国 (US)
星等 :
--
Orbit Information
数据来源 国际轨道数据
星历时间: 2026-09-02T22:00:02+0800
1天前
查看轨道信息
半长轴: 6890.9km
偏心率: 0.0002612
轨道倾角: 70.003°
近地点辐角 306.371°
升交点赤经 108.499°
平近点角 95.806°
近地点: 510.963km
远地点: 514.563km
周期: 94.880分钟
每日圈数: 15.177104
Detailed Information
固有亮度:
5
最大亮度:
2.5
卫星平台:
Starlink V1.0
覆盖范围:
全球
运营商:
太空探索技术公司
运营商所在国:
美国
制造商(研发单位):
太空探索技术公司
制造商所在国:
美国
使用方式:
暂无
Satellite Introduction
Starlink 计划是 SpaceX 推出的全球卫星互联网项目,通过发射低轨道卫星,为全球尤其是偏远地区提供高速、低延迟的互联网服务。自 2019 年起,Starlink 已部署数千颗卫星,旨在缩小全球数字鸿沟,推动互联网普及。该项目还为军事、航空等行业提供通信支持,带来广泛经济效益。
2D Orbit Map
3D Orbit Map
Orbit Altitude Analysis Chart
Orbit Inclination Analysis Chart
Orbit Comprehensive Analysis Chart
View Comprehensive Chart
Conjunction Data List
Event ID Objects TCA Miss Dist (km) Collision Risk Probability Collision Risk Index (CRI) Action
CDM_260903-210905-771606-430621
2026-09-03T
21:09:11+0000
0.492 km
远距离
1.596237E-4 高风险 0.79
CDM_260904-140305-256106-430621
2026-09-04T
14:03:56+0000
1.182 km
极远距离
9.251583E-6 低风险 0.54
CDM_260904-144205-996106-430621
2026-09-04T
14:42:18+0000
1.482 km
极远距离
6.406652E-6 低风险 0.51
CDM_260903-230306-364906-430621
2026-09-03T
23:03:51+0000
1.448 km
极远距离
3.41401E-6 低风险 0.46
CDM_260904-130805-996106-430621
2026-09-04T
13:08:29+0000
2.223 km
极远距离
2.054883E-6 低风险 0.41
CDM_260904-063106-430606-815421
2026-09-04T
06:31:52+0000
2.335 km
极远距离
2.017698E-6 低风险 0.41
CDM_260828-011805-846206-430623
GNOMES-4 (58462)
2026-08-28T
01:18:42+0000
2.770 km
极远距离
1.499878E-6 低风险 0.39
CDM_260827-205006-054006-430622
HAWK-10A (60540)
2026-08-27T
20:50:47+0000
2.885 km
极远距离
1.416572E-6 低风险 0.38
CDM_260904-093906-430606-917221
2026-09-04T
09:39:48+0000
2.694 km
极远距离
8.136274E-7 极低风险 0.33